Location: *
(2.5500°S, 65.9667°W)
Time: 12:25:12
(UTC+00:00)

Hubble Space Telescope - Visible Passes

Search period start: 26 January 2022 00:00
Search period end: 05 February 2022 00:00
Orbit: 534 x 538 km, 28.5° (Epoch: 26 January)

Date Brightness Start Highest point End Pass type
(mag) Time Alt. Az. Time Alt. Az. Time Alt. Az.
26 Jan 2.9 08:45:38 17° NNE 08:45:38 17° NNE 08:48:11 10° ENE visible
27 Jan 2.8 08:35:13 21° NE 08:35:13 21° NE 08:37:32 10° E visible
28 Jan 3.0 08:24:48 22° ENE 08:24:48 22° ENE 08:26:39 10° E visible
28 Jan 1.7 10:00:13 10° W 10:04:04 37° SSW 10:07:55 10° SE visible
29 Jan 3.4 08:14:22 19° E 08:14:22 19° E 08:15:40 10° ESE visible
29 Jan 2.1 09:49:40 12° W 09:52:49 27° SSW 09:56:22 10° SSE visible
30 Jan 3.8 08:03:54 14° ESE 08:03:54 14° ESE 08:04:32 10° ESE visible
30 Jan 2.5 09:39:13 13° WSW 09:41:36 20° SSW 09:44:44 10° SSE visible
31 Jan 2.9 09:28:42 13° SW 09:30:23 16° SSW 09:32:55 10° SSE visible
01 Feb 3.1 09:18:10 11° SW 09:19:12 12° SSW 09:20:45 10° S visible
